Skip Page Navigation
NASA JPL Caltech
NASA Logo - Jet Propulsion Laboratory + View the NASA Portal
+ Center for Near-Earth Object Studies
JPL Home Earth Solar System Stars & Galaxies Technology
JPL Solar System Dynamics
BODIES ORBITS EPHEMERIDES TOOLS PHYSICAL DATA DISCOVERY FAQ SITE MAP
JPL Small-Body Database Browser
Search: [ help ]  
173096 (2007 TA79)
Classification: Main-belt Asteroid          SPK-ID: 2173096
Ephemeris | Orbit Diagram | Orbital Elements | Mission Design | Physical Parameters | Discovery Circumstances | Close-Approach Data ]

[ show orbit diagram ]
Orbital Elements at Epoch 2459000.5 (2020-May-31.0) TDB
Reference: JPL 12 (heliocentric ecliptic J2000)
 Element Value Uncertainty (1-sigma)   Units 
e .04552933355695823 5.7044e-08  
a 3.014289294480559 2.2792e-08 au
q 2.877050711754985 1.7147e-07 au
i 1.199392963460906 6.1816e-06 deg
node 312.6879905210115 0.00032767 deg
peri 184.5329613765389 0.00033614 deg
M 49.61668446305045 7.4231e-05 deg
tp 2458737.048265134182
(2019-Sep-10.54826513)
0.00039415 TDB
period 1911.506695340029
5.23
2.168e-05
5.936e-08
d
yr
n .188333109623747 2.136e-09 deg/d
Q 3.151527877206132 2.3829e-08 au
  Orbit Determination Parameters
   # obs. used (total)      366  
   data-arc span      10430 days (28.56 yr)  
   first obs. used      1991-10-08  
   last obs. used      2020-04-28  
   planetary ephem.      DE431  
   SB-pert. ephem.      SB431-N16  
   condition code      0  
   norm. resid. RMS      .59634  
   source      ORB  
   producer      Otto Matic  
   solution date      2020-May-21 03:24:03  

Additional Information
 Earth MOID = 1.89045 au 
 Jupiter MOID = 1.84945 au 
 T_jup = 3.247 
[ show covariance matrix ]

Ephemeris | Orbit Diagram | Orbital Elements | Mission Design | Physical Parameters | Discovery Circumstances | Close-Approach Data ]

Physical Parameter Table
Parameter Symbol Value Units Sigma Reference Notes
absolute magnitude H 15.7   n/a MPO422660  

173096 (2007 TA79)          Discovered 2007-Oct-05 by Spacewatch at Kitt Peak
Reference: 20071224/Numbers.arcLast Updated: 2007-12-22

[ show close-approach data ]
Alternate Designations
 2007 TA79 = 1996 RH19 = 2004 FT42 = 2005 CY61 
Ephemeris | Orbit Diagram | Orbital Elements | Mission Design | Physical Parameters | Discovery Circumstances | Close-Approach Data ]
ABOUT SSD CREDITS/AWARDS PRIVACY/COPYRIGHT GLOSSARY LINKS
FirstGov 2020-Aug-07 11:01 UT
(server date/time)  
NASA Home Page
Site Manager:   Ryan S. Park
Webmaster  Alan B. Chamberlin